Weather History for KNID - January, 2012

Change the Weather History Date:

Thursday, January 5, 2012

  Actual Average Record
Temperature  
Mean Temperature 49 °F -  
Max Temperature 68 °F 56 °F 68 °F (2012)
Min Temperature 30 °F 31 °F 19 °F (2000)
Degree Days  
Heating Degree Days 16    
Moisture  
Dew Point 14 °F    
Average Humidity 30    
Maximum Humidity 50    
Minimum Humidity 12    
Precipitation  
Precipitation 0.00 in - - ()
Sea Level Pressure  
Sea Level Pressure 30.22 in    
Wind  
Wind Speed 3 mph (SW)    
Max Wind Speed 9 mph    
Max Gust Speed -    
Visibility 10 miles    
Events      
Averages and records for this station are not official NWS values.
T = Trace of Precipitation, MM = Missing Value Source: NWS Daily Summary

Daily Weather History Graph

Daily Weather History Graph

Search for Another Location

Airport or City:

Trip Planner

Search our weather history database for the weather conditions in past years. The results will help you decide how hot, cold, wet, or windy it might be!

Date:

Astronomy

Jan. 05, 2012 Rise Set
Actual Time 7:01 AM PST 4:51 PM PST
Civil Twilight 6:32 AM PST 5:19 PM PST
Nautical Twilight 6:01 AM PST 5:51 PM PST
Astronomical Twilight 5:30 AM PST 6:22 PM PST
Moon 1:58 PM PST (1/5) 3:50 AM PST (1/5)
Length of Visible Light 10h 46m
Length of Day
9h 50m
Waxing Gibbous, 88% of the Moon is Illuminated
Jan 5
Waxing Gibbous
Jan 8
Full
Jan 16
Last Quarter
Jan 22
New
Jan 30
First Quarter

Hourly Weather History & Observations

Time (PST) Temp. Windchill Dew Point Humidity Pressure Visibility Wind Dir Wind Speed Gust Speed Precip Events Conditions
12:56 AM 34.0 °F 31.0 °F 12.0 °F 40% 30.34 in 10.0 mi North 3.5 mph - N/A   Clear
1:56 AM 34.0 °F - 12.0 °F 40% 30.34 in 10.0 mi Calm Calm - N/A   Clear
2:56 AM 37.0 °F 31.0 °F 12.9 °F 37% 30.32 in 10.0 mi South 8.1 mph - N/A   Clear
3:56 AM 34.0 °F - 12.9 °F 42% 30.31 in 10.0 mi Calm Calm - N/A   Clear
4:56 AM 30.0 °F - 12.0 °F 47% 30.31 in 10.0 mi Calm Calm - N/A   Scattered Clouds
5:56 AM 32.0 °F 27.5 °F 12.9 °F 45% 30.32 in 10.0 mi SW 4.6 mph - N/A   Scattered Clouds
6:56 AM 30.9 °F 27.5 °F 14.0 °F 50% 30.32 in 10.0 mi SSW 3.5 mph - N/A   Partly Cloudy
7:56 AM 36.0 °F - 14.0 °F 41% 30.32 in 10.0 mi Calm Calm - N/A   Clear
8:56 AM 41.0 °F - 14.0 °F 33% 30.33 in 10.0 mi Calm Calm - N/A   Clear
9:56 AM 48.0 °F - 15.1 °F 27% 30.32 in 10.0 mi Calm Calm - N/A   Clear
10:56 AM 57.0 °F - 17.1 °F 21% 30.27 in 10.0 mi Calm Calm - N/A   Clear
11:56 AM 63.0 °F - 17.1 °F 17% 30.21 in 10.0 mi NNE 3.5 mph - N/A   Clear
12:56 PM 64.9 °F - 16.0 °F 15% 30.17 in 10.0 mi Calm Calm - N/A   Clear
1:56 PM 68.0 °F - 14.0 °F 12% 30.13 in 10.0 mi Calm Calm - N/A   Partly Cloudy
2:56 PM 68.0 °F - 14.0 °F 12% 30.12 in 10.0 mi Calm Calm - N/A   Partly Cloudy
3:56 PM 68.0 °F - 14.0 °F 12% 30.11 in 10.0 mi Calm Calm - N/A   Partly Cloudy
4:56 PM 61.0 °F - 14.0 °F 16% 30.12 in 10.0 mi Calm Calm - N/A   Partly Cloudy
5:56 PM 48.9 °F - 12.0 °F 23% 30.13 in 10.0 mi WSW 5.8 mph - N/A   Clear
6:56 PM 46.0 °F 43.1 °F 12.9 °F 26% 30.12 in 10.0 mi SSW 5.8 mph - N/A   Clear
7:56 PM 46.0 °F 41.4 °F 14.0 °F 28% 30.12 in 10.0 mi SSW 9.2 mph - N/A   Clear
8:56 PM 44.1 °F 39.5 °F 14.0 °F 30% 30.12 in 10.0 mi SSW 8.1 mph - N/A   Clear
9:56 PM 41.0 °F - 14.0 °F 33% 30.12 in 10.0 mi Calm Calm - N/A   Clear
10:56 PM 37.9 °F 34.4 °F 14.0 °F 38% 30.11 in 10.0 mi West 4.6 mph - N/A   Clear
11:56 PM 37.0 °F 32.4 °F 14.0 °F 39% 30.08 in 10.0 mi South 5.8 mph - N/A   Clear